W2DSX-2 Weather Reports


time (UTC)temp
F
wind
direction
speed
knots
gust
knots
rain 1hr
in
rain 24hr
in
rain mn
in
humidity
%
barometer
mb
20260506024504 58 218 6.1 15.6 0.00 0.00 0.00 78 1011.0
20260506023005 59 188 7.0 14.8 0.00 0.00 0.00 78 1011.0
20260506021504 58 226 5.2 13.9 0.00 0.00 0.00 77 1011.0
20260506020007 59 195 6.1 14.8 0.00 0.00 0.00 76 1011.1
20260506014504 58 236 4.3 8.7 0.00 0.00 0.00 76 1011.0
20260506013005 59 219 5.2 14.8 0.00 0.00 0.00 76 1010.8
20260506011504 59 229 5.2 13.9 0.00 0.00 0.00 75 1010.8
20260506010006 59 162 6.1 14.8 0.00 0.00 0.00 74 1010.7
20260506004505 60 169 5.2 15.6 0.00 0.00 0.00 73 1010.6
20260506003006 60 213 7.8 19.1 0.00 0.00 0.00 72 1010.4
20260506000008 61 213 7.8 18.2 0.00 0.00 0.00 70 1010.1
20260505234504 63 228 9.6 24.3 0.00 0.00 0.00 68 1009.5
20260505233005 62 224 8.7 26.9 0.00 0.00 0.00 69 1009.2
20260505231504 62 236 9.6 20.0 0.00 0.00 0.00 69 1009.0
20260505230008 62 165 8.7 21.7 0.00 0.00 0.00 69 1008.9
20260505224503 63 226 9.6 21.7 0.00 0.00 0.00 68 1008.9
20260505223005 63 233 7.0 14.8 0.00 0.00 0.00 68 1008.8
20260505221504 63 208 8.7 20.9 0.00 0.00 0.00 67 1008.8
20260505220008 64 205 7.8 20.0 0.00 0.00 0.00 67 1008.8
20260505214503 64 214 6.1 16.5 0.00 0.00 0.00 67 1008.7
20260505213004 63 161 7.0 18.2 0.00 0.00 0.00 67 1008.5
20260505211504 63 209 8.7 19.1 0.00 0.00 0.00 67 1008.3
20260505210008 63 210 8.7 20.0 0.00 0.00 0.00 68 1008.2
20260505204504 62 231 8.7 17.4 0.00 0.00 0.00 69 1008.5
20260505203005 63 200 7.8 16.5 0.00 0.00 0.00 67 1008.4
20260505201504 63 146 7.0 15.6 0.00 0.00 0.00 67 1008.4
20260505200007 63 225 7.0 15.6 0.00 0.00 0.00 68 1008.6
20260505194503 64 226 5.2 13.9 0.00 0.00 0.00 67 1008.8
20260505193006 64 156 6.1 19.1 0.00 0.00 0.00 67 1009.0
20260505191504 65 223 7.8 16.5 0.00 0.00 0.00 65 1009.5
20260505190005 65 174 6.1 13.9 0.00 0.00 0.00 66 1009.8
20260505184504 64 203 5.2 15.6 0.00 0.00 0.00 67 1010.0
20260505183004 64 236 5.2 14.8 0.00 0.00 0.00 66 1010.1
20260505181504 64 176 3.5 13.0 0.00 0.00 0.00 66 1010.3
20260505180006 64 141 2.6 6.1 0.00 0.00 0.00 68 1010.4
20260505174504 64 193 2.6 7.0 0.00 0.00 0.00 70 1010.7
20260505173003 64 195 2.6 7.0 0.00 0.00 0.00 68 1010.7
20260505171506 63 101 2.6 7.8 0.00 0.00 0.00 70 1010.7
20260505170006 64 143 3.5 9.6 0.00 0.00 0.00 68 1010.9
20260505164504 64 169 2.6 8.7 0.00 0.00 0.00 68 1011.0
20260505163004 66 219 2.6 6.1 0.00 0.00 0.00 66 1011.0
20260505161505 68 200 1.7 5.2 0.00 0.00 0.00 65 1011.1
20260505153004 64 158 2.6 6.1 0.00 0.00 0.00 69 1011.6
20260505151505 63 195 1.7 5.2 0.00 0.00 0.00 70 1011.6
20260505124503 61 153 1.7 5.2 0.00 0.00 0.00 74 1011.5
20260505123004 59 200 0.9 3.5 0.00 0.00 0.00 78 1011.4
20260505120006 57 193 0.0 1.7 0.00 0.00 0.00 82 1011.4
20260505114501 57 203 0.0 1.7 0.00 0.00 0.00 82 1011.5
20260505101503 52 217 0.9 2.6 0.00 0.00 0.00 88 1010.7
20260505100005 52 223 0.9 3.5 0.00 0.00 0.00 88 1010.6
20260505091502 52 207 0.9 3.5 0.00 0.00 0.00 88 1010.5
20260505090005 53 197 0.9 3.5 0.00 0.00 0.00 87 1010.5
20260505084502 53 202 1.7 5.2 0.00 0.00 0.00 88 1010.3
20260505083004 53 189 0.9 2.6 0.00 0.00 0.00 87 1010.3
20260505081503 53 193 0.9 2.6 0.00 0.00 0.00 87 1010.5
20260505074503 53 212 0.9 3.5 0.00 0.00 0.00 86 1010.4
20260505070005 54 202 3.5 10.4 0.00 0.00 0.00 86 1010.4
20260505063004 53 216 1.7 4.3 0.00 0.00 0.00 86 1010.5
20260505061501 53 213 1.7 8.7 0.00 0.00 0.00 85 1010.7
20260505060007 54 195 1.7 3.5 0.00 0.00 0.00 85 1010.7
20260505054504 54 210 2.6 6.1 0.00 0.00 0.00 85 1010.8
20260505053005 54 197 2.6 7.8 0.00 0.00 0.00 84 1011.0
20260505051502 54 208 2.6 7.0 0.00 0.00 0.00 84 1011.0
20260505041504 55 231 1.7 5.2 0.00 0.00 0.00 80 1011.3
20260505040007 55 234 1.7 6.1 0.00 0.00 0.00 79 1011.2
20260505034505 56 207 1.7 7.0 0.00 0.00 0.00 77 1011.2
20260505033004 57 207 1.7 7.0 0.00 0.00 0.00 72 1011.1
20260505030007 58 213 4.3 9.6 0.00 0.00 0.00 70 1011.3